Tracking 22879 objects as of 23-Apr-2021
HD Live streaming from Space Station
objects crossing your sky now

STARLINK-2341

Track STARLINK-2341 now!
10-day predictions
STARLINK-2341 is classified as:


NORAD ID: 47794
Int'l Code: 2021-018H
Perigee: 356.1 km
Apogee: 357.8 km
Inclination: 53.0 °
Period: 91.5 minutes
Semi major axis: 6727 km
RCS: Unknown
Launch date: March 11, 2021
Source: United States (US)
Launch site: AIR FORCE EASTERN TEST RANGE (AFETR)
aabbcc
Your satellite tracking list
Your tracking list is empty




NASA's NSSDC Master Catalog

Two Line Element Set (TLE):
1 47794U 21018H   21112.91667824  .00002641  00000-0  23246-4 0  9997
2 47794  53.0494 336.4725 0001284  74.6158 128.3021 15.73177122  7611
Source of the keplerian elements: AFSPC